FLOCK 4BE-36 (60486 NORAD) Tracking and Keplerian Element Data

This shows tracking and keplerian element data for the satellite.

Feedback or suggestion? Click here.




ElementValue
Catalog60486
NameFLOCK 4BE-36
Epoch Orbit864
Epoch Day286.77046604
Epoch Year2024
RAAN1.4102
Inclination97.4349
Eccentricity0.0004991
Argument of Perigee278.6447
Mean Anonmoly81.4223
Mean Motion15.19624895
Decay Rate0.0002161
L11 60486U 24149U 24286.77046604 .00021610 00000+0 10150-2 0 9998
L22 60486 97.4349 1.4102 0004991 278.6447 81.4223 15.19624895 8649



Live tracking and technical data element details for FLOCK 4BE-36 (NORAD 60486). FLOCK 4BE-36 can be tracked NOW for your location showing map with azimuth and elevation plus other details from your city location.







IsCatalogInMostPopularTable: catalog: 60486, numindb: 6
Update: records affected: 1



GetName: 60486 FLOCK 4BE-36

Hit Count: updated at: Fri, 06 Dec 2024 11:20:25 GMT